When you browse on this site, cookies collect data to enhance your experience and personalize the content and advertising you see.
Visit our Privacy Policy to learn more. By continuing to use the site, you agree to this use of cookies and data.
  • En España
  • Lista de países
  • Para 7 días
  • Temperatura del agua
  • Mapa Satelital
  • El tiempo en el mapa
  • Informadores
  • user-avatar
    Iniciar sesión

    Tiempo cada hora Nashavar

    Hoy, 23 Enero, Miércoles

    Tiempo Temperatura Precipitaciones Viento Presión Humedad
    00:00 +9°C° 0 mm 1 mps 732 mmHg 68%
    01:00 +9°C° 0 mm 1 mps 732 mmHg 73%
    02:00 +9°C° 0 mm 1 mps 732 mmHg 78%
    03:00 +8°C° 0 mm 1 mps 732 mmHg 80%
    04:00 +8°C° 0 mm 1 mps 732 mmHg 81%
    05:00 +8°C° 0 mm 1 mps 733 mmHg 82%
    06:00 +8°C° 0 mm 1 mps 733 mmHg 78%
    07:00 +8°C° 0 mm 1 mps 733 mmHg 73%
    08:00 +7°C° 0 mm 2 mps 734 mmHg 68%
    09:00 +9°C° 0 mm 2 mps 734 mmHg 60%
    10:00 +10°C° 0 mm 3 mps 734 mmHg 51%
    11:00 +12°C° 0 mm 3 mps 735 mmHg 43%
    12:00 +12°C° 0 mm 3 mps 735 mmHg 40%
    13:00 +13°C° 0 mm 3 mps 734 mmHg 38%
    14:00 +14°C° 0 mm 3 mps 734 mmHg 35%
    15:00 +13°C° 0 mm 3 mps 734 mmHg 35%
    16:00 +13°C° 0 mm 3 mps 734 mmHg 35%
    17:00 +13°C° 0 mm 3 mps 734 mmHg 34%
    18:00 +12°C° 0 mm 3 mps 735 mmHg 33%
    19:00 +11°C° 0 mm 3 mps 735 mmHg 33%
    20:00 +10°C° 0 mm 3 mps 736 mmHg 32%
    21:00 +10°C° 0 mm 4 mps 736 mmHg 31%
    22:00 +8°C° 0 mm 4 mps 736 mmHg 31%
    23:00 +8°C° 0 mm 4 mps 736 mmHg 31%

    Mañana, 24 Enero, Jueves

    Tiempo Temperatura Precipitaciones Viento Presión Humedad
    00:00 +8°C° 0 mm 4 mps 737 mmHg 31%
    01:00 +7°C° 0 mm 4 mps 737 mmHg 32%
    02:00 +8°C° 0 mm 3 mps 737 mmHg 33%
    03:00 +8°C° 0 mm 3 mps 737 mmHg 34%
    04:00 +6°C° 0 mm 4 mps 737 mmHg 35%
    05:00 +6°C° 0 mm 4 mps 737 mmHg 36%
    06:00 +6°C° 0 mm 4 mps 737 mmHg 36%
    07:00 +6°C° 0 mm 4 mps 738 mmHg 36%
    08:00 +6°C° 0 mm 4 mps 738 mmHg 36%
    09:00 +8°C° 0 mm 4 mps 738 mmHg 32%
    10:00 +10°C° 0 mm 4 mps 738 mmHg 28%
    11:00 +12°C° 0 mm 4 mps 738 mmHg 24%
    12:00 +13°C° 0 mm 4 mps 738 mmHg 23%
    13:00 +13°C° 0 mm 4 mps 737 mmHg 21%
    14:00 +14°C° 0 mm 4 mps 736 mmHg 20%
    15:00 +14°C° 0 mm 4 mps 736 mmHg 21%
    16:00 +13°C° 0 mm 4 mps 736 mmHg 22%
    17:00 +13°C° 0 mm 4 mps 736 mmHg 23%
    18:00 +12°C° 0 mm 4 mps 736 mmHg 24%
    19:00 +11°C° 0 mm 4 mps 737 mmHg 25%
    20:00 +10°C° 0 mm 4 mps 737 mmHg 26%
    21:00 +8°C° 0 mm 4 mps 737 mmHg 25%
    22:00 +8°C° 0 mm 4 mps 737 mmHg 25%
    23:00 +7°C° 0 mm 4 mps 737 mmHg 24%

    Pasado mañana, 25 Enero, Viernes

    Tiempo Temperatura Precipitaciones Viento Presión Humedad
    00:00 +7°C° 0 mm 4 mps 737 mmHg 24%
    01:00 +7°C° 0 mm 4 mps 737 mmHg 24%
    02:00 +7°C° 0 mm 3 mps 737 mmHg 24%
    03:00 +7°C° 0 mm 3 mps 736 mmHg 24%
    04:00 +7°C° 0 mm 3 mps 736 mmHg 24%
    05:00 +5°C° 0 mm 3 mps 736 mmHg 24%
    06:00 +5°C° 0 mm 3 mps 736 mmHg 24%
    07:00 +5°C° 0 mm 3 mps 736 mmHg 24%
    08:00 +5°C° 0 mm 3 mps 736 mmHg 24%
    09:00 +7°C° 0 mm 4 mps 736 mmHg 21%
    10:00 +10°C° 0 mm 4 mps 736 mmHg 19%
    11:00 +12°C° 0 mm 4 mps 736 mmHg 17%
    12:00 +13°C° 0 mm 4 mps 735 mmHg 15%
    13:00 +14°C° 0 mm 4 mps 735 mmHg 14%
    14:00 +15°C° 0 mm 4 mps 734 mmHg 13%
    15:00 +14°C° 0 mm 4 mps 734 mmHg 14%
    16:00 +14°C° 0 mm 3 mps 734 mmHg 15%
    17:00 +13°C° 0 mm 3 mps 734 mmHg 16%
    18:00 +12°C° 0 mm 3 mps 735 mmHg 17%
    19:00 +11°C° 0 mm 3 mps 736 mmHg 18%
    20:00 +10°C° 0 mm 4 mps 737 mmHg 19%
    21:00 +10°C° 0 mm 3 mps 737 mmHg 19%
    22:00 +9°C° 0 mm 3 mps 737 mmHg 20%
    23:00 +9°C° 0 mm 3 mps 737 mmHg 20%

    26 Enero, Sábado

    Tiempo Temperatura Precipitaciones Viento Presión Humedad
    00:00 +8°C° 0 mm 3 mps 737 mmHg 20%
    01:00 +8°C° 0 mm 3 mps 737 mmHg 21%
    02:00 +7°C° 0 mm 3 mps 737 mmHg 21%
    03:00 +7°C° 0 mm 3 mps 737 mmHg 21%
    04:00 +7°C° 0 mm 3 mps 737 mmHg 21%
    05:00 +5°C° 0 mm 3 mps 737 mmHg 22%
    06:00 +5°C° 0 mm 3 mps 738 mmHg 22%
    07:00 +5°C° 0 mm 3 mps 738 mmHg 22%
    08:00 +5°C° 0 mm 3 mps 739 mmHg 22%
    09:00 +8°C° 0 mm 3 mps 739 mmHg 19%
    10:00 +10°C° 0 mm 3 mps 739 mmHg 17%
    11:00 +12°C° 0 mm 3 mps 739 mmHg 14%
    12:00 +13°C° 0 mm 3 mps 739 mmHg 13%
    13:00 +14°C° 0 mm 3 mps 738 mmHg 13%
    14:00 +16°C° 0 mm 3 mps 738 mmHg 12%
    15:00 +15°C° 0 mm 2 mps 738 mmHg 13%
    16:00 +15°C° 0 mm 2 mps 737 mmHg 14%
    17:00 +15°C° 0 mm 2 mps 737 mmHg 15%
    18:00 +13°C° 0 mm 2 mps 738 mmHg 16%
    19:00 +11°C° 0 mm 3 mps 739 mmHg 18%
    20:00 +10°C° 0 mm 3 mps 739 mmHg 19%
    21:00 +10°C° 0 mm 3 mps 739 mmHg 19%
    22:00 +9°C° 0 mm 3 mps 739 mmHg 20%
    23:00 +9°C° 0 mm 3 mps 739 mmHg 21%

    27 Enero, Domingo

    Tiempo Temperatura Precipitaciones Viento Presión Humedad
    00:00 +8°C° 0 mm 3 mps 739 mmHg 21%
    01:00 +8°C° 0 mm 3 mps 739 mmHg 22%
    02:00 +7°C° 0 mm 2 mps 739 mmHg 22%
    03:00 +7°C° 0 mm 2 mps 739 mmHg 23%
    04:00 +7°C° 0 mm 2 mps 739 mmHg 23%
    05:00 +6°C° 0 mm 2 mps 739 mmHg 24%
    06:00 +6°C° 0 mm 2 mps 739 mmHg 24%
    07:00 +6°C° 0 mm 2 mps 739 mmHg 24%
    08:00 +6°C° 0 mm 2 mps 740 mmHg 24%
    09:00 +8°C° 0 mm 2 mps 740 mmHg 21%
    10:00 +12°C° 0 mm 2 mps 740 mmHg 18%
    11:00 +13°C° 0 mm 3 mps 739 mmHg 15%
    12:00 +14°C° 0 mm 2 mps 739 mmHg 14%
    13:00 +15°C° 0 mm 2 mps 738 mmHg 13%
    14:00 +16°C° 0 mm 2 mps 737 mmHg 12%
    15:00 +16°C° 0 mm 2 mps 737 mmHg 13%
    16:00 +16°C° 0 mm 2 mps 737 mmHg 14%
    17:00 +15°C° 0 mm 2 mps 737 mmHg 14%
    18:00 +14°C° 0 mm 2 mps 737 mmHg 15%
    19:00 +13°C° 0 mm 2 mps 738 mmHg 15%
    20:00 +10°C° 0 mm 2 mps 738 mmHg 16%
    21:00 +10°C° 0 mm 2 mps 738 mmHg 16%
    22:00 +10°C° 0 mm 2 mps 738 mmHg 16%
    23:00 +9°C° 0 mm 2 mps 738 mmHg 16%

    28 Enero, Lunes

    Tiempo Temperatura Precipitaciones Viento Presión Humedad
    00:00 +9°C° 0 mm 2 mps 738 mmHg 16%
    01:00 +8°C° 0 mm 2 mps 738 mmHg 16%
    02:00 +8°C° 0 mm 2 mps 738 mmHg 16%
    03:00 +7°C° 0 mm 2 mps 737 mmHg 16%
    04:00 +7°C° 0 mm 2 mps 737 mmHg 16%
    05:00 +7°C° 0 mm 2 mps 737 mmHg 17%
    06:00 +7°C° 0 mm 2 mps 737 mmHg 18%
    07:00 +8°C° 0 mm 1 mps 737 mmHg 19%
    08:00 +8°C° 0 mm 1 mps 738 mmHg 20%
    09:00 +11°C° 0 mm 1 mps 737 mmHg 18%
    10:00 +13°C° 0 mm 1 mps 737 mmHg 16%
    11:00 +15°C° 0 mm 1 mps 737 mmHg 13%
    12:00 +16°C° 0 mm 1 mps 737 mmHg 13%
    13:00 +18°C° 0 mm 1 mps 736 mmHg 12%
    14:00 +19°C° 0 mm 1 mps 736 mmHg 11%
    15:00 +19°C° 0 mm 1 mps 735 mmHg 14%
    16:00 +16°C° 0 mm 0 mps 735 mmHg 16%
    17:00 +16°C° 0 mm 0 mps 735 mmHg 19%
    18:00 +14°C° 0 mm 0 mps 735 mmHg 19%
    19:00 +13°C° 0 mm 0 mps 735 mmHg 19%
    20:00 +11°C° 0 mm 0 mps 736 mmHg 19%
    21:00 +11°C° 0 mm 0 mps 736 mmHg 20%
    22:00 +11°C° 0 mm 0 mps 736 mmHg 20%
    23:00 +10°C° 0 mm 0 mps 735 mmHg 21%
    Mostrar más